Regional Weather Roundup
Issued by NWS Upton, NY

Current Version | Previous Version | Graphics & Text | Print | Product List | Glossary Off
Versions: 1 2 3 4 5 6 7 8 9 10 11 12 13 14 15 16 17 18 19 20 21 22 23 24 25 26 27 28 29 30 31 32 33 34 35 36 37 38 39 40 41 42 43 44 45 46 47 48 49 50

000
ASUS41 KOKX 111605
RWROKX

REGIONAL WEATHER ROUNDUP
NATIONAL WEATHER SERVICE NEW YORK NY
1200 PM EDT FRI JUL 11 2014

NOTE: "FAIR" INDICATES FEW OR NO CLOUDS BELOW 12,000 FEET WITH NO
SIGNIFICANT WEATHER AND/OR OBSTRUCTIONS TO VISIBILITY.

NYZ071-072-176-178-NJZ106-104-111700-
NEW YORK CITY METRO AREA


CITY           SKY/WX    TMP DP  RH WIND       PRES   REMARKS
CENTRAL PARK   SUNNY     82  53  36 VRB5      30.23S
LAGUARDIA APRT MOSUNNY   81  53  37 NE10      30.20S
KENNEDY INTL   MOSUNNY   84  52  33 NE6G20    30.20F
NEWARK/LIBERTY MOSUNNY   83  55  38 NE12      30.20F
BRNX BOT. GARD   N/A     81  57  44 S6        30.22R
TETERBORO      SUNNY     84  55  36 N5        30.19F
$$

NYZ177-179-078>081-111700-
LONG ISLAND NEW YORK

CITY           SKY/WX    TMP DP  RH WIND       PRES   REMARKS
FARMINGDALE    SUNNY     81  56  42 E9        30.20S
ISLIP          MOSUNNY   83  59  44 N12       30.18S
SHIRLEY        SUNNY     81  61  50 VRB5      30.21R
WESTHAMPTON    SUNNY     80  64  58 NE8       30.21S
MONTAUK POINT    N/A     75  64  68 NE8       30.22S
$$

NYZ052-065-067-111700-
HUDSON VALLEY

CITY           SKY/WX    TMP DP  RH WIND       PRES   REMARKS
WHITE PLAINS   MOSUNNY   80  57  45 N7        30.21S
NEWBURGH       SUNNY     77  55  47 E8        30.25S
MONTGOMERY     SUNNY     78  56  46 VRB6      30.23F
POUGHKEEPSIE   SUNNY     79  54  41 VRB6      30.21F
ALBANY         MOSUNNY   75  56  51 N6        30.24F
$$

NJZ001-105-106-008-010-013-015-019>022-104-111700-
NEW JERSEY

CITY           SKY/WX    TMP DP  RH WIND       PRES   REMARKS
NEWARK/LIBERTY MOSUNNY   83  55  38 NE12      30.20F
TETERBORO      SUNNY     84  55  36 N5        30.19F
CALDWELL       SUNNY     80  57  45 E8        30.21F
MORRISTOWN     SUNNY     81  59  47 N3        30.21F
SOMERVILLE     SUNNY     82  56  40 VRB3      30.19F
LINDEN         FAIR      85  52  32 SE9       30.21F
SUSSEX         SUNNY     79  59  50 VRB5      30.23F
ANDOVER          N/A     78  60  53 VRB3      30.23F
TRENTON        SUNNY     82  58  43 MISG      30.20S
MILLVILLE      SUNNY     80  68  66 VRB7      30.19F
ATLANTIC CITY  MOSUNNY   79  64  60 E14       30.20R
WRIGHTSTOWN    SUNNY     82  61  48 NE9       30.17F
TOMS RIVER     SUNNY     81  57  44 NE10G16   30.21R
BELMAR         SUNNY     81  55  41 E9        30.21R
$$

PAZ047>061-062-071-111700-
EASTERN PENNSYLVANIA

CITY           SKY/WX    TMP DP  RH WIND       PRES   REMARKS
PHILADELPHIA   MOSUNNY   85  63  47 NE9G16    30.20S
ALLENTOWN      SUNNY     81  59  47 NE7       30.22F
SCRANTON       PTSUNNY   79  56  45 N5        30.24S
$$

CTZ002-004>006-009-010-012-RIZ004-006-007-MAZ004-011-015-111700-
SOUTHERN NEW ENGLAND
 IN CT

CITY           SKY/WX    TMP DP  RH WIND       PRES   REMARKS
BRADLEY INTL   MOSUNNY   80  57  45 N5        30.21F
HARTFORD       SUNNY     79  54  41 N5        30.20F
DANBURY        SUNNY     79  56  45 N7        30.23F
WTRBRY/OXFORD  MOSUNNY   75  55  50 N5        30.25F
BRIDGEPORT     SUNNY     81  58  45 E12       30.20S
MERIDEN        SUNNY     81  55  40 N6        30.21S
NEW HAVEN      SUNNY     84  56  38 VRB6      30.20S
CHESTER        FAIR      79  55  44 NE6       30.22S
GROTON         MOSUNNY   74  64  71 SW8       30.20R
WILLIMANTIC    SUNNY     80  55  42 NE7       30.21F

 IN RI

CITY           SKY/WX    TMP DP  RH WIND       PRES   REMARKS
PROVIDENCE     MOSUNNY   79  60  52 E5        30.21S
BLOCK ISLAND   MOSUNNY   73  64  73 E7        30.21F
WESTERLY       PTSUNNY   77  62  59 S9        30.21R

 IN MA

CITY           SKY/WX    TMP DP  RH WIND       PRES   REMARKS
BOSTON         MOSUNNY   72  55  55 E10       30.23F
WORCESTER      SUNNY     74  54  49 NE7       30.24F
WESTFIELD      SUNNY     78  57  48 NE6       30.22F
PROVINCETOWN   NOT AVBL
NANTUCKET      PTSUNNY   75  57  53 E7        30.19S
$$

ANZ330-335-338-340-345-350-353-355-111700-
COASTAL MARINE OBSERVATIONS


STATION/POSITION TIME  SKY/WX   TEMP    WIND        PRES    VSBY  WAVE
                                AIR SEA DIR/SP/G                  HT/PER
                 (UTC)          (F)     (DEG/KT/KT) (MB)    (MI)  (FT/S)
NY HARB ENTRANCE NOT AVBL
4S FIRE IS       1500               69                N/A           2/ 6
23SW MTP         1600            67 67              1022.2          2/ 7
HUDSON CANYON    1600            70 70   20/  8/ 10 1021.5          2/ 7
EXECUTION ROCKS  1600            73 69   90/  4/  6   N/A
WESTERN LI SOUND 1600            72     100/  6/  6   N/A           1
CENTRAL LI SOUND 1500            70 71  140/  6/  8   N/A           1
EASTERN LI SOUND 1500            69 66  200/  4/  6   N/A
ROBBINS REEF     1600            78      60/ 13/ 14   N/A
$$


>>>>>>>>>>>>>>>>>>>>>>>>>>>> KEY <<<<<<<<<<<<<<<<<<<<<<<<<<<
>                                                          <
>     SKY/WX - SKY CONDITION/PRESENT WEATHER               <
>     TMP    - TEMPERATURE IN FAHRENHEIT                   <
>     DP     - DEWPOINT IN FAHRENHEIT                      <
>     RH     - RELATIVE HUMIDITY IN PERCENT                <
>     WIND   - DIRECTION AND SPEED IN MPH                  <
>     PRES   - MEAN SEA LEVEL PRESSURE IN INCHES OF HG     <
>     WCI    - WIND CHILL INDEX                            <
>     VSB    - VISIBILITY IN MILES                         <
>     HX     - HEAT INDEX                                  <
>     TC     - TEMPERATURE IN CELSIUS                      <
>     VRB    - VARIABLE WIND DIRECTION                     <
>                                                          <
>>>>>>>>>>>>>>>>>>>>>>>>>>>> KEY <<<<<<<<<<<<<<<<<<<<<<<<<<<





USA.gov is the U.S. government's official web portal to all federal, state and local government web resources and services.